FCDMC ALERT System Data Display

70017 Pecos Basin Pool
Impoundment Stage

Impoundment Stage
Date       Time        feet      cfs
10/21/2021 12:00:00    6.10       49
10/21/2021 08:40:00    6.15       50
10/21/2021 07:52:00    6.29       52
10/21/2021 07:20:00    6.44       53
10/21/2021 06:55:00    6.59       54
10/21/2021 06:31:00    6.73       55
10/21/2021 06:00:00    6.88       55
10/21/2021 02:02:00    6.83       55
10/21/2021 00:00:00    6.69       54
10/20/2021 23:21:00    6.69       54
10/20/2021 20:14:00    6.54       54
10/20/2021 18:49:00    6.39       53
10/20/2021 18:00:00    6.25       52
10/20/2021 17:55:00    6.25       52
10/20/2021 12:00:00    6.10       49
10/20/2021 08:59:00    6.10       49
10/20/2021 08:16:00    6.25       52
10/20/2021 07:39:00    6.39       53
10/20/2021 07:07:00    6.54       54
10/20/2021 06:35:00    6.69       54
10/20/2021 06:00:00    6.83       55
10/20/2021 05:32:00    6.83       55
10/20/2021 00:00:00    6.69       54
10/19/2021 21:11:00    6.59       54
10/19/2021 18:57:00    6.44       53
10/19/2021 18:00:00    6.29       52
10/19/2021 17:28:00    6.25       52
10/19/2021 12:00:00    6.10       49
10/19/2021 09:13:00    6.15       50
10/19/2021 09:11:00    6.34       53
10/19/2021 09:10:00    6.49       54
10/19/2021 09:09:00    6.64       54
10/19/2021 08:56:00    6.10       49
10/19/2021 08:10:00    6.25       52
10/19/2021 07:31:00    6.39       53
10/19/2021 07:07:00    6.54       54
10/19/2021 06:41:00    6.69       54
10/19/2021 06:00:00    6.83       55
10/19/2021 02:02:00    6.73       55
10/19/2021 00:00:00    6.59       54
10/18/2021 23:00:00    6.54       54
10/18/2021 20:09:00    6.39       53
10/18/2021 18:00:00    6.25       52
10/18/2021 17:56:00    6.25       52
10/18/2021 12:00:00    6.10       49
10/18/2021 08:13:00    6.20       51
10/18/2021 07:22:00    6.34       53
10/18/2021 06:55:00    6.49       54
10/18/2021 06:28:00    6.64       54
10/18/2021 06:00:00    6.78       55
10/18/2021 03:02:00    6.73       55
10/18/2021 00:00:00    6.59       54
10/17/2021 23:43:00    6.59       54
10/17/2021 21:17:00    6.44       53
10/17/2021 19:52:00    6.29       52
10/17/2021 18:00:00    6.15       50
10/17/2021 12:00:00    6.10       49
10/17/2021 08:31:00    6.15       50
10/17/2021 07:54:00    6.29       52
10/17/2021 07:16:00    6.44       53
10/17/2021 06:45:00    6.59       54
10/17/2021 06:00:00    6.73       55
10/17/2021 02:09:00    6.64       54
10/17/2021 00:00:00    6.49       54
10/16/2021 20:39:00    6.39       53
10/16/2021 18:45:00    6.25       52
10/16/2021 18:00:00    6.10       49
10/16/2021 12:00:00    6.10       49
10/16/2021 08:59:00    6.05        0
10/16/2021 07:34:00    6.20       51
10/16/2021 07:02:00    6.34       53
10/16/2021 06:33:00    6.49       54
10/16/2021 06:00:00    6.64       54
10/16/2021 05:28:00    6.69       54
10/16/2021 00:00:00    6.54       54
10/15/2021 23:27:00    6.54       54
10/15/2021 18:42:00    6.39       53
10/15/2021 18:00:00    6.25       52
10/15/2021 17:54:00    6.25       52
10/15/2021 12:00:00    6.10       49
10/15/2021 08:54:00    6.10       49
10/15/2021 07:49:00    6.25       52
10/15/2021 07:13:00    6.39       53
10/15/2021 06:47:00    6.54       54
10/15/2021 06:22:00    6.69       54
10/15/2021 06:00:00    6.83       55
10/15/2021 03:32:00    6.88       55
10/15/2021 00:00:00    6.73       55
10/14/2021 23:01:00    6.73       55
10/14/2021 20:00:00    6.59       54
10/14/2021 18:32:00    6.44       53
10/14/2021 18:00:00    6.29       52
10/14/2021 17:34:00    6.25       52
10/14/2021 12:00:00    6.10       49
10/14/2021 09:51:00    6.10       49
10/14/2021 08:35:00    6.25       52
10/14/2021 07:43:00    6.39       53
10/14/2021 07:15:00    6.54       54
10/14/2021 06:52:00    6.69       54
10/14/2021 06:29:00    6.83       55